TimeEDT,TemperatureF,Dew PointF,Humidity,Sea Level PressureIn,VisibilityMPH,Wind Direction,Wind SpeedMPH,Gust SpeedMPH,PrecipitationIn,Events,Conditions,WindDirDegrees,DateUTC
12:53 AM,55.4,48.2,77,30.24,10.0,ENE,10.4,-,N/A,,Overcast,60,2012-06-17 04:53:00
1:53 AM,55.9,51.1,84,30.23,10.0,NNE,9.2,-,N/A,,Overcast,20,2012-06-17 05:53:00
2:53 AM,55.9,52.0,87,30.22,10.0,NE,11.5,-,N/A,,Overcast,40,2012-06-17 06:53:00
3:53 AM,55.9,53.1,90,30.22,10.0,NNE,10.4,-,N/A,,Overcast,30,2012-06-17 07:53:00
4:53 AM,55.9,53.1,90,30.22,10.0,NNE,12.7,-,N/A,,Overcast,20,2012-06-17 08:53:00
5:26 AM,53.6,51.8,94,30.22,10.0,NNE,12.7,-,N/A,,Scattered Clouds,30,2012-06-17 09:26:00
5:53 AM,54.0,52.0,93,30.22,10.0,NNE,10.4,-,N/A,,Clear,30,2012-06-17 09:53:00
6:53 AM,57.0,52.0,83,30.23,10.0,NE,11.5,-,N/A,,Clear,40,2012-06-17 10:53:00
7:53 AM,59.0,50.0,72,30.23,10.0,NE,9.2,19.6,N/A,,Clear,50,2012-06-17 11:53:00
8:53 AM,60.1,50.0,69,30.23,10.0,ENE,13.8,-,N/A,,Clear,60,2012-06-17 12:53:00
9:53 AM,62.1,51.1,67,30.23,10.0,NE,13.8,20.7,N/A,,Clear,40,2012-06-17 13:53:00
10:53 AM,63.0,52.0,67,30.23,10.0,NE,15.0,21.9,N/A,,Partly Cloudy,40,2012-06-17 14:53:00
11:53 AM,62.1,52.0,70,30.22,10.0,NE,17.3,23.0,N/A,,Scattered Clouds,40,2012-06-17 15:53:00
12:53 PM,61.0,51.1,70,30.21,10.0,NE,16.1,23.0,N/A,,Scattered Clouds,50,2012-06-17 16:53:00
1:53 PM,61.0,51.1,70,30.20,10.0,ENE,16.1,23.0,N/A,,Scattered Clouds,60,2012-06-17 17:53:00
2:53 PM,61.0,52.0,72,30.19,10.0,NE,11.5,18.4,N/A,,Scattered Clouds,50,2012-06-17 18:53:00
3:00 PM,60.8,51.8,72,30.19,10.0,NE,17.3,23.0,N/A,,Mostly Cloudy,40,2012-06-17 19:00:00
3:26 PM,60.8,50.0,68,30.18,10.0,ENE,11.5,20.7,N/A,,Scattered Clouds,60,2012-06-17 19:26:00
3:53 PM,60.1,50.0,69,30.17,10.0,NE,17.3,21.9,N/A,,Partly Cloudy,50,2012-06-17 19:53:00
4:53 PM,60.1,51.1,72,30.17,10.0,NE,12.7,-,N/A,,Partly Cloudy,50,2012-06-17 20:53:00
5:53 PM,57.9,50.0,75,30.15,10.0,ENE,9.2,-,N/A,,Scattered Clouds,60,2012-06-17 21:53:00
6:53 PM,55.9,50.0,80,30.14,10.0,ENE,10.4,-,N/A,,Scattered Clouds,60,2012-06-17 22:53:00
7:24 PM,55.4,51.8,88,30.14,10.0,East,6.9,-,N/A,,Mostly Cloudy,80,2012-06-17 23:24:00
7:53 PM,55.0,50.0,83,30.14,10.0,ENE,8.1,-,N/A,,Mostly Cloudy,70,2012-06-17 23:53:00
8:08 PM,53.6,51.8,94,30.14,10.0,ENE,9.2,-,N/A,,Scattered Clouds,70,2012-06-18 00:08:00
8:17 PM,53.6,51.8,94,30.14,10.0,East,9.2,-,N/A,,Mostly Cloudy,80,2012-06-18 00:17:00
8:53 PM,54.0,51.1,90,30.14,10.0,East,8.1,-,N/A,,Overcast,90,2012-06-18 00:53:00
9:00 PM,53.6,51.8,94,30.14,10.0,East,6.9,-,N/A,,Overcast,80,2012-06-18 01:00:00
9:53 PM,54.0,51.1,90,30.15,10.0,East,8.1,-,N/A,,Overcast,80,2012-06-18 01:53:00
10:41 PM,53.6,51.8,94,30.15,10.0,ENE,8.1,-,N/A,,Overcast,60,2012-06-18 02:41:00
10:53 PM,53.1,52.0,96,30.15,9.0,ENE,6.9,-,N/A,,Overcast,70,2012-06-18 02:53:00
11:53 PM,53.1,53.1,100,30.15,2.5,NNE,4.6,-,N/A,,Overcast,20,2012-06-18 03:53:00